Find Starlink 32097

NORAD ID: 60351 Int'l Des: 2024-136 Owner: SPXS Country: US Constellation: starlink operational
LEOCIRCULAR

現在のビュー

3D地球を読み込み中...

About Starlink 32097

Starlink 32097 (NORAD 60351) is a starlink constellation satellite (v2 mini) launched Aug 2, 2024 by SPXS of US. It operates in LEO, CIRCULAR orbit with a mass of 730.00 kg.

次回通過

Passes for default location (London). Set your location on the main map for personalized predictions.

高度履歴

Loading altitude history...

軌道要素

1 60351U 24136Y 26263.34200502 -.00000436 00000-0 -17591-5 0 9999
2 60351 53.1595 246.7748 0001369 85.3438 274.7721 15.34385602119539
Epoch: Sep 20, 2026 • Age: 27 hours

現在のステータス

高度 465.8 km
遠地点 / 近地点 N/A
速度 7.63 km/s
衛星直下点 -10.25°S, 105.48°W
打ち上げ日 Aug 2, 2024
運用期間 2.1 years
タイプ internet

技術仕様

分類 Payload
質量 730.00 kg
乾燥質量 700.00 kg
長さ 0.30 m
スパン 29.00 m
形状 ? Box + pan
製造者 SPXS
バスタイプ Starlink V2M
フェーズステータス In Orbit
所有者/国 SPXS/US

Most Searched